,Output(kWh),Demand(kWh),Import(kWh),Export(kWh),HW(kWh),HWPV(kWh),Output(kWh/d),Demand(kWh/d),Import(kWh/d),Export(kWh/d),HW(kWh/d),HWPV(kWh/d)
06/01/2016,0.022,0.022,0.001,0.002,0.013,0.013,0.022,0.022,0.001,0.002,0.013,0.013
07/01/2016,0.072,0.142,0.101,0.032,0.154,0.151,0.05,0.12,0.1,0.03,0.141,0.138
08/01/2016,2.358,5.039,3.583,0.902,1.651,1.606,2.286,4.897,3.482,0.87,1.497,1.455
09/01/2016,4.487,9.191,6.38,1.679,2.241,2.185,2.129,4.152,2.797,0.777,0.59,0.579
10/01/2016,5.732,12.36,8.774,2.154,2.787,2.724,1.245,3.169,2.394,0.475,0.546,0.539
11/01/2016,7.496,16.72,11.87,2.651,3.639,3.567,1.764,4.36,3.096,0.497,0.852,0.843
12/01/2016,9.311,23.08,16.96,3.192,4.68,4.6,1.815,6.36,5.09,0.541,1.041,1.033
13/01/2016,10.51,29.4,22.34,3.44,4.857,4.771,1.199,6.32,5.38,0.248,0.177,0.171
14/01/2016,13.05,35.18,26.16,4.015,6.378,6.284,2.54,5.78,3.82,0.575,1.521,1.513
15/01/2016,14.95,43.16,32.74,4.522,6.944,6.837,1.9,7.98,6.58,0.507,0.566,0.553
16/01/2016,17.65,50.91,38.39,5.123,7.945,7.782,2.7,7.75,5.65,0.601,1.001,0.945
17/01/2016,20.62,56.65,41.93,5.893,9.174,8.982,2.97,5.74,3.54,0.77,1.229,1.2
18/01/2016,21.69,61.57,46.04,6.166,9.229,9.033,1.07,4.92,4.11,0.273,0.055,0.051
19/01/2016,23.72,66.01,49,6.718,9.928,9.731,2.03,4.44,2.96,0.552,0.699,0.698
20/01/2016,27,69.45,50.57,8.13,10.99,10.78,3.28,3.44,1.57,1.412,1.062,1.049
21/01/2016,30.41,71.88,50.8,9.332,12.77,12.56,3.41,2.43,0.23,1.202,1.78,1.78
22/01/2016,33.14,74.2,51.11,10.05,15.58,15.36,2.73,2.32,0.31,0.718,2.81,2.8
23/01/2016,34.51,75.13,51.36,10.71,16.61,16.38,1.37,0.93,0.25,0.66,1.03,1.02
24/01/2016,36.79,76.76,51.6,11.46,18.32,18.07,2.28,1.63,0.24,0.75,1.71,1.69
25/01/2016,38.79,78.18,51.83,12.12,19.75,19.5,2,1.42,0.23,0.66,1.43,1.43
26/01/2016,40.85,79.57,52.03,12.85,21.33,21.09,2.06,1.39,0.2,0.73,1.58,1.59
27/01/2016,42.11,80.22,52.25,13.54,22.22,21.97,1.26,0.65,0.22,0.69,0.89,0.88
28/01/2016,43.27,81.57,53.24,14.22,22.77,22.52,1.16,1.35,0.99,0.68,0.55,0.55
29/01/2016,46.93,89.19,58.52,15.47,24.63,24.15,3.66,7.62,5.28,1.25,1.86,1.63
30/01/2016,48.08,94,62.62,15.86,24.73,24.25,1.15,4.81,4.1,0.39,0.1,0.1
31/01/2016,52.24,99.99,65.86,17.22,26.4,25.8,4.16,5.99,3.24,1.36,1.67,1.55
01/02/2016,53.89,106.53,71.04,17.49,27.09,26.48,1.65,6.54,5.18,0.27,0.69,0.68
02/02/2016,56.2,112.75,75.53,18.03,28.04,27.4,2.31,6.22,4.49,0.54,0.95,0.92
03/02/2016,60.41,118.77,78.96,19.64,29.67,28.96,4.21,6.02,3.43,1.61,1.63,1.56
04/02/2016,63.99,124.83,82.7,20.91,31.2,30.43,3.58,6.06,3.74,1.27,1.53,1.47
05/02/2016,66.47,130.38,86.31,21.44,32.56,31.77,2.48,5.55,3.61,0.53,1.36,1.34
06/02/2016,68.32,135.05,89.56,21.87,33.11,32.31,1.85,4.67,3.25,0.43,0.55,0.54
07/02/2016,69.56,140.1,93.74,22.24,33.3,32.5,1.24,5.05,4.18,0.37,0.19,0.19
08/02/2016,73.29,148.24,99.2,23.29,35.35,34.49,3.73,8.14,5.46,1.05,2.05,1.99
09/02/2016,75.59,154.4,103.57,23.81,36.33,35.45,2.3,6.16,4.37,0.52,0.98,0.96
10/02/2016,80.3,161.15,107.22,25.42,38.5,37.59,4.71,6.75,3.65,1.61,2.17,2.14
11/02/2016,82.61,165.92,110.38,26.12,39.2,38.28,2.31,4.77,3.16,0.7,0.7,0.69
12/02/2016,87.27,171.54,113.38,28.14,40.75,39.79,4.66,5.62,3,2.02,1.55,1.51
13/02/2016,89.47,177.19,117.28,28.59,42.06,41.08,2.2,5.65,3.9,0.45,1.31,1.29
14/02/2016,91.13,183.01,121.86,29.02,42.5,41.52,1.66,5.82,4.58,0.43,0.44,0.44
15/02/2016,95.66,191.16,126.56,30.11,45.2,44.18,4.53,8.15,4.7,1.09,2.7,2.66
16/02/2016,100.37,198.41,130.78,31.8,48.05,46.99,4.71,7.25,4.22,1.69,2.85,2.81
17/02/2016,106.64,206.56,135.3,34.47,49.33,48.24,6.27,8.15,4.52,2.67,1.28,1.25
18/02/2016,108.4,211.95,139.31,34.85,49.71,48.62,1.76,5.39,4.01,0.38,0.38,0.38
19/02/2016,114.98,220.68,144.31,37.73,51.83,50.69,6.58,8.73,5,2.88,2.12,2.07
20/02/2016,119.18,226.08,146.98,39.2,53.44,52.22,4.2,5.4,2.67,1.47,1.61,1.53
21/02/2016,121.35,231.03,150.14,39.63,54.26,53.04,2.17,4.95,3.16,0.43,0.82,0.82
22/02/2016,125.11,238.82,155.12,40.57,56.88,55.62,3.76,7.79,4.98,0.94,2.62,2.58
23/02/2016,128.92,245.09,158.59,41.58,60.03,58.75,3.81,6.27,3.47,1.01,3.15,3.13
24/02/2016,135.29,252.21,162.15,44.39,62.67,61.38,6.37,7.12,3.56,2.81,2.64,2.63
25/02/2016,141.24,257.54,164.49,47.35,63.96,62.65,5.95,5.33,2.34,2.96,1.29,1.27
26/02/2016,145.88,264.29,168.14,48.88,65.95,64.6,4.64,6.75,3.65,1.53,1.99,1.95
27/02/2016,151.28,272.4,172.64,50.65,67.73,66.35,5.4,8.11,4.5,1.77,1.78,1.75
28/02/2016,154.31,277.27,175.3,51.47,69.02,67.63,3.03,4.87,2.66,0.82,1.29,1.28
29/02/2016,159.6,286.79,180.71,52.64,72.55,71.06,5.29,9.52,5.41,1.17,3.53,3.43
01/03/2016,165.93,294.18,184.45,55.3,73.74,72.23,6.33,7.39,3.74,2.66,1.19,1.17
02/03/2016,169.23,300.71,188.68,56.3,75.54,74,3.3,6.53,4.23,1,1.8,1.77
03/03/2016,174.18,307.33,192.52,58.4,77.48,75.91,4.95,6.62,3.84,2.1,1.94,1.91
04/03/2016,178.96,313.74,195.49,59.66,80.15,78.57,4.78,6.41,2.97,1.26,2.67,2.66
05/03/2016,186.57,320.63,198.61,63.39,82.39,80.73,7.61,6.89,3.12,3.73,2.24,2.16
06/03/2016,189.89,323.92,199.68,64.39,84.4,82.71,3.32,3.29,1.07,1,2.01,1.98
07/03/2016,194.21,326.88,199.8,65.84,87.54,85.83,4.32,2.96,0.12,1.45,3.14,3.12
08/03/2016,202.26,330.77,199.87,70.07,91.13,89.4,8.05,3.89,0.07,4.23,3.59,3.57
09/03/2016,206.98,333.75,199.91,71.85,93.55,91.81,4.72,2.98,0.04,1.78,2.42,2.41
10/03/2016,210.32,335.82,199.95,73.13,95.88,94.14,3.34,2.07,0.04,1.28,2.33,2.33
11/03/2016,213.59,338.22,200.03,74.06,98.48,96.73,3.27,2.4,0.08,0.93,2.6,2.59
12/03/2016,224.33,342.67,200.13,80.48,100.41,98.66,10.74,4.45,0.1,6.42,1.93,1.93
13/03/2016,233.38,346.81,200.2,85.47,102.3,100.54,9.05,4.14,0.07,4.99,1.89,1.88
14/03/2016,244.83,351.23,200.31,92.63,104.19,102.43,11.45,4.42,0.11,7.16,1.89,1.89
15/03/2016,257.02,355.78,200.35,100.36,106.19,104.42,12.19,4.55,0.04,7.73,2,1.99
16/03/2016,260.46,361.6,203.74,101.35,108.28,106.5,3.44,5.82,3.39,0.99,2.09,2.08
17/03/2016,268.12,369.14,206.87,104.56,112.37,110.51,7.66,7.54,3.13,3.21,4.09,4.01
18/03/2016,279.32,378.32,211.13,110.77,113.14,111.22,11.2,9.18,4.26,6.21,0.77,0.71
19/03/2016,281.39,384.5,215.78,111.24,113.54,111.61,2.07,6.18,4.65,0.47,0.4,0.39
20/03/2016,284.78,388.42,217.16,112.02,115.16,113.21,3.39,3.92,1.38,0.78,1.62,1.6
21/03/2016,289.55,393.54,219,113.44,117.73,115.77,4.77,5.12,1.84,1.42,2.57,2.56
22/03/2016,296.12,402.75,223.74,115.45,120.86,118.84,6.57,9.21,4.74,2.01,3.13,3.07
23/03/2016,308.85,412.15,226.91,121.88,123.53,121.43,12.73,9.4,3.17,6.43,2.67,2.59
24/03/2016,313.78,419.58,230.47,122.94,127.11,124.95,4.93,7.43,3.56,1.06,3.58,3.52
25/03/2016,318.31,424.51,232.2,124.18,129.37,127.18,4.53,4.93,1.73,1.24,2.26,2.23
26/03/2016,329.27,433,235.74,130.12,131.67,129.4,10.96,8.49,3.54,5.94,2.3,2.22
27/03/2016,331.59,440.22,241.28,130.67,132,129.72,2.32,7.22,5.54,0.55,0.33,0.32
28/03/2016,339.87,450.5,246.5,133.86,135.27,132.83,8.28,10.28,5.22,3.19,3.27,3.11
29/03/2016,349.08,460.33,251.42,138.1,137.43,134.85,9.21,9.83,4.92,4.24,2.16,2.02
30/03/2016,356.6,467.27,254.63,141.76,138.61,136,7.52,6.94,3.21,3.66,1.18,1.15
31/03/2016,366.06,475.18,257.02,145.7,141.59,138.74,9.46,7.91,2.39,3.94,2.98,2.74
01/04/2016,375.26,484.45,260.88,149.54,144.56,141.61,9.2,9.27,3.86,3.84,2.97,2.87
02/04/2016,385.36,492.2,263.25,154.29,146.83,143.85,10.1,7.75,2.37,4.75,2.27,2.24
03/04/2016,393.82,498.9,265.47,158.22,147.81,144.78,8.46,6.7,2.22,3.93,0.98,0.93
04/04/2016,400.64,505.01,267.41,160.92,151.15,148.06,6.82,6.11,1.94,2.7,3.34,3.28
05/04/2016,407.41,512.77,270.64,163.11,154.67,151.52,6.77,7.76,3.23,2.19,3.52,3.46
06/04/2016,416.74,519.28,272.61,167.93,158.2,154.98,9.33,6.51,1.97,4.82,3.53,3.46
07/04/2016,427.17,525.03,273.9,173.89,162.09,158.85,10.43,5.75,1.29,5.96,3.89,3.87
08/04/2016,433.3,530.23,274.74,175.72,165.42,162.15,6.13,5.2,0.84,1.83,3.33,3.3
09/04/2016,442.29,536.46,275.7,179.5,168.76,165.48,8.99,6.23,0.96,3.78,3.34,3.33
10/04/2016,450.76,542.42,276.57,182.91,171.79,168.48,8.47,5.96,0.87,3.41,3.03,3
11/04/2016,462.87,551.54,279.44,188.77,173.32,169.96,12.11,9.12,2.87,5.86,1.53,1.48
12/04/2016,469.81,558.58,282.09,191.28,176.19,172.79,6.94,7.04,2.65,2.51,2.87,2.83
13/04/2016,484.63,566.11,283.74,200.13,178.37,174.9,14.82,7.53,1.65,8.85,2.18,2.11
14/04/2016,496.05,573.74,286.49,206.62,180.05,176.54,11.42,7.63,2.75,6.49,1.68,1.64
15/04/2016,504.76,582.65,290.31,210.19,183.68,180.03,8.71,8.91,3.82,3.57,3.63,3.49
16/04/2016,509.35,589.12,293.67,211.61,185.38,181.7,4.59,6.47,3.36,1.42,1.7,1.67
17/04/2016,519.81,596.74,295.75,216.47,187.5,183.73,10.46,7.62,2.08,4.86,2.12,2.03
18/04/2016,531.4,605.73,299.04,222.43,190.23,186.4,11.59,8.99,3.29,5.96,2.73,2.67
19/04/2016,538.47,612.89,301.29,224.84,192.86,188.94,7.07,7.16,2.25,2.41,2.63,2.54
20/04/2016,555.06,621.61,303.27,234.81,194.4,190.38,16.59,8.72,1.98,9.97,1.54,1.44
21/04/2016,572.23,629.48,304.78,245.86,195.99,191.83,17.17,7.87,1.51,11.05,1.59,1.45
22/04/2016,583.77,638.56,307.78,251.55,197.87,193.68,11.54,9.08,3,5.69,1.88,1.85
23/04/2016,589.01,644.78,309.9,253.06,200.34,196.15,5.24,6.22,2.12,1.51,2.47,2.47
24/04/2016,599.93,650.42,310.75,259.34,203.76,199.54,10.92,5.64,0.85,6.28,3.42,3.39
25/04/2016,608.1,654.63,310.79,263.28,206.98,202.74,8.17,4.21,0.04,3.94,3.22,3.2
26/04/2016,618.06,659.14,310.84,268.84,210.16,205.88,9.96,4.51,0.05,5.56,3.18,3.14
27/04/2016,632.62,663.94,310.9,278.68,213.11,208.8,14.56,4.8,0.06,9.84,2.95,2.92
28/04/2016,647.51,668.86,310.94,288.73,215.93,211.58,14.89,4.92,0.04,10.05,2.82,2.78
29/04/2016,656.87,673.23,310.97,293.76,219.36,214.99,9.36,4.37,0.03,5.03,3.43,3.41
30/04/2016,671.4,678.23,311.03,303.36,221.57,217.17,14.53,5,0.06,9.6,2.21,2.18
01/05/2016,685.51,683.09,311.08,312.71,224.61,220.19,14.11,4.86,0.05,9.35,3.04,3.02
02/05/2016,700.16,688.21,311.14,322.38,226.91,222.49,14.65,5.12,0.06,9.67,2.3,2.3
03/05/2016,711.24,692.72,311.16,328.94,229.51,225.07,11.08,4.51,0.02,6.56,2.6,2.58
04/05/2016,722.57,697.53,311.22,335.49,232.23,227.77,11.33,4.81,0.06,6.55,2.72,2.7
05/05/2016,741.21,703.91,311.5,348.05,234.36,229.83,18.64,6.38,0.28,12.56,2.13,2.06
06/05/2016,757.71,712.06,312.83,357.82,236.16,231.56,16.5,8.15,1.33,9.77,1.8,1.73
07/05/2016,771.59,719.91,313.78,364.78,239.26,234.61,13.88,7.85,0.95,6.96,3.1,3.05
08/05/2016,785.74,727.37,315.07,372.69,240.23,235.55,14.15,7.46,1.29,7.91,0.97,0.94
09/05/2016,802.9,736.27,316.71,382.85,244.81,240.04,17.16,8.9,1.64,10.16,4.58,4.49
10/05/2016,811.4,744.31,319.91,386.76,245.89,241.1,8.5,8.04,3.2,3.91,1.08,1.06
11/05/2016,817.33,750.61,321.69,388.39,248.49,243.66,5.93,6.3,1.78,1.63,2.6,2.56
12/05/2016,824.81,757.46,323.73,391.26,251.25,246.39,7.48,6.85,2.04,2.87,2.76,2.73
13/05/2016,840.01,766.11,325.83,400.06,253.84,248.91,15.2,8.65,2.1,8.8,2.59,2.52
14/05/2016,857.89,772.79,326.81,412.43,254.73,249.79,17.88,6.68,0.98,12.37,0.89,0.88
15/05/2016,874.85,779.69,327.41,423.26,257.09,252.13,16.96,6.9,0.6,10.83,2.36,2.34
16/05/2016,892.09,786.58,328.12,434.52,260.61,255.63,17.24,6.89,0.71,11.26,3.52,3.5
17/05/2016,909.27,795.52,329.9,444.82,263.61,258.6,17.18,8.94,1.78,10.3,3,2.97
18/05/2016,919.62,803.61,332.45,449.72,266.86,261.54,10.35,8.09,2.55,4.9,3.25,2.94
19/05/2016,925.56,810.45,335.05,451.53,269.22,263.89,5.94,6.84,2.6,1.81,2.36,2.35
20/05/2016,937.06,818.98,338.09,457.6,271.44,266.08,11.5,8.53,3.04,6.07,2.22,2.19
21/05/2016,949.99,826.72,339.58,464.46,273.24,267.84,12.93,7.74,1.49,6.86,1.8,1.76
22/05/2016,956.64,833.72,342.13,466.85,276.42,271,6.65,7,2.55,2.39,3.18,3.16
23/05/2016,967.86,843.42,345.78,472.11,277.95,272.38,11.22,9.7,3.65,5.26,1.53,1.38
24/05/2016,985.99,851.27,347.31,484.07,280,274.38,18.13,7.85,1.53,11.96,2.05,2
25/05/2016,998.59,860.62,350.06,490.13,283.27,277.56,12.6,9.35,2.75,6.06,3.27,3.18
26/05/2016,1005,865.97,351.4,492.78,285.72,279.99,6.41,5.35,1.34,2.65,2.45,2.43
27/05/2016,1021,874.88,353.57,502.19,289.51,283.73,16,8.91,2.17,9.41,3.79,3.74
28/05/2016,1036,884.33,356.44,510.77,291.09,285.2,15,9.45,2.87,8.58,1.58,1.47
29/05/2016,1052,892.96,358.45,520.54,293.18,287.08,16,8.63,2.01,9.77,2.09,1.88
30/05/2016,1071,900.28,360.03,532.99,294.09,287.96,19,7.32,1.58,12.45,0.91,0.88
31/05/2016,1077,907.03,362.45,535.36,297.22,291.07,6,6.75,2.42,2.37,3.13,3.11
01/06/2016,1080,911.22,364.57,536.32,297.7,291.55,3,4.19,2.12,0.96,0.48,0.48
02/06/2016,1083,916.16,367.55,537.19,298.14,291.97,3,4.94,2.98,0.87,0.44,0.42
03/06/2016,1091,923.9,370.13,540.52,300.49,294.31,8,7.74,2.58,3.33,2.35,2.34
04/06/2016,1099,931.05,372.01,542.83,303.88,297.66,8,7.15,1.88,2.31,3.39,3.35
05/06/2016,1105,939.09,375.54,544.87,306.59,300.35,6,8.04,3.53,2.04,2.71,2.69
06/06/2016,1124,947.07,376.23,556.65,309.31,302.97,19,7.98,0.69,11.78,2.72,2.62
07/06/2016,1142,948.88,376.8,573.07,310.85,304.51,18,1.81,0.57,16.42,1.54,1.54
08/06/2016,1154,949.98,376.8,584.13,312.19,305.85,12,1.1,0,11.06,1.34,1.34
09/06/2016,1168,951.09,376.81,596.86,313.81,307.47,14,1.11,0.01,12.73,1.62,1.62
10/06/2016,1184,952.37,376.82,611.88,314.7,308.35,16,1.28,0.01,15.02,0.89,0.88
11/06/2016,1196,953.41,376.83,623.32,316.19,309.84,12,1.04,0.01,11.44,1.49,1.49
12/06/2016,1206,954.58,376.84,632.78,316.93,310.59,10,1.17,0.01,9.46,0.74,0.75
13/06/2016,1218,955.68,376.85,642.99,318.36,312,12,1.1,0.01,10.21,1.43,1.41
14/06/2016,1224,956.7,376.85,648.92,321.37,315,6,1.02,0,5.93,3.01,3
15/06/2016,1235,957.76,376.86,658.84,322.81,316.44,11,1.06,0.01,9.92,1.44,1.44
16/06/2016,1249,958.89,376.88,671.87,324.69,318.32,14,1.13,0.02,13.03,1.88,1.88
17/06/2016,1256,959.88,376.89,678.09,326.91,320.53,7,0.99,0.01,6.22,2.22,2.21
18/06/2016,1271,960.83,376.89,691.97,328.78,322.4,15,0.95,0,13.88,1.87,1.87
19/06/2016,1278,961.74,376.9,698.35,331.77,325.39,7,0.91,0.01,6.38,2.99,2.99
20/06/2016,1286,962.7,376.91,706.53,334.18,327.8,8,0.96,0.01,8.18,2.41,2.41
21/06/2016,1297,963.68,376.93,715.89,335.39,329.01,11,0.98,0.02,9.36,1.21,1.21
22/06/2016,1307,964.74,376.95,725.07,336.67,330.28,10,1.06,0.02,9.18,1.28,1.27
23/06/2016,1317,965.82,376.97,734.44,337.87,331.49,10,1.08,0.02,9.37,1.2,1.21
24/06/2016,1321,966.59,376.98,738.48,341.87,335.48,4,0.77,0.01,4.04,4,3.99
25/06/2016,1336,967.66,376.98,752.54,343.5,337.11,15,1.07,0,14.06,1.63,1.63
26/06/2016,1350,968.93,377.01,765.12,345.23,338.84,14,1.27,0.03,12.58,1.73,1.73
27/06/2016,1361,969.95,377.03,775.41,347.63,341.24,11,1.02,0.02,10.29,2.4,2.4
28/06/2016,1376,971.07,377.04,788.78,349.39,343,15,1.12,0.01,13.37,1.76,1.76
29/06/2016,1385,972.02,377.05,797.86,351.79,345.39,9,0.95,0.01,9.08,2.4,2.39
30/06/2016,1391,972.95,377.06,802.52,354.72,348.32,6,0.93,0.01,4.66,2.93,2.93
01/07/2016,1402,974.03,377.06,813.38,356.86,350.46,11,1.08,0,10.86,2.14,2.14
02/07/2016,1411,974.94,377.07,821.23,359.1,352.69,9,0.91,0.01,7.85,2.24,2.23
03/07/2016,1429,975.99,377.08,838.16,360.64,354.23,18,1.05,0.01,16.93,1.54,1.54
04/07/2016,1442,977,377.08,850.61,362.08,355.66,13,1.01,0,12.45,1.44,1.43
05/07/2016,1451,978.07,377.1,858.37,365.02,358.59,9,1.07,0.02,7.76,2.94,2.93
06/07/2016,1468,979.19,377.12,874.78,366.35,359.92,17,1.12,0.02,16.41,1.33,1.33
07/07/2016,1484,984.66,378.44,886.61,368.73,362.29,16,5.47,1.32,11.83,2.38,2.37
08/07/2016,1498,992.3,379.86,894.88,371.51,364.96,14,7.64,1.42,8.27,2.78,2.67
09/07/2016,1510,1001,382.37,900.51,372.78,366.12,12,8.7,2.51,5.63,1.27,1.16
10/07/2016,1521,1008,383.57,905.83,374.45,367.74,11,7,1.2,5.32,1.67,1.62
11/07/2016,1535,1016,385.24,914.22,376.68,369.88,14,8,1.67,8.39,2.23,2.14
12/07/2016,1544,1023,387.57,918.36,379.43,372.54,9,7,2.33,4.14,2.75,2.66
13/07/2016,1555,1029,388.84,924.58,381.14,374.23,11,6,1.27,6.22,1.71,1.69
14/07/2016,1565,1037,391.18,929.34,384.41,377.3,10,8,2.34,4.76,3.27,3.07
15/07/2016,1579,1045,393.57,937.61,387.44,380.23,14,8,2.39,8.27,3.03,2.93
16/07/2016,1586,1051,395.66,941.05,390.4,383.17,7,6,2.09,3.44,2.96,2.94
17/07/2016,1599,1058,396.51,948.27,393.36,385.99,13,7,0.85,7.22,2.96,2.82
18/07/2016,1613,1065,397.61,956.46,396.24,388.78,14,7,1.1,8.19,2.88,2.79
19/07/2016,1631,1070,398.2,970.21,396.9,389.43,18,5,0.59,13.75,0.66,0.65
20/07/2016,1649,1075,398.24,983.02,398.12,390.64,18,5,0.04,12.81,1.22,1.21
21/07/2016,1667,1080,398.26,996.12,399.47,391.97,18,5,0.02,13.1,1.35,1.33
22/07/2016,1678,1085,398.3,1003,402.37,394.85,11,5,0.04,6.88,2.9,2.88
23/07/2016,1686,1089,398.36,1007,405.77,398.24,8,4,0.06,4,3.4,3.39
24/07/2016,1704,1094,398.38,1021,407.5,399.97,18,5,0.02,14,1.73,1.73
25/07/2016,1714,1098,398.43,1026,410.79,403.24,10,4,0.05,5,3.29,3.27
26/07/2016,1728,1105,398.94,1034,414.09,406.45,14,7,0.51,8,3.3,3.21
27/07/2016,1739,1111,400.61,1040,417.21,409.26,11,6,1.67,6,3.12,2.81
28/07/2016,1752,1119,402.59,1048,419.39,411.27,13,8,1.98,8,2.18,2.01
29/07/2016,1760,1125,404.12,1052,421.62,413.46,8,6,1.53,4,2.23,2.19
30/07/2016,1769,1131,405.83,1056,424.51,416.24,9,6,1.71,4,2.89,2.78
31/07/2016,1779,1140,408.58,1061,427.03,418.69,10,9,2.75,5,2.52,2.45
01/08/2016,1790,1148,411.16,1066,429.38,420.99,11,8,2.58,5,2.35,2.3
02/08/2016,1796,1155,414.49,1069,431.56,423.14,6,7,3.33,3,2.18,2.15
03/08/2016,1801,1160,415.47,1071,434.47,426.03,5,5,0.98,2,2.91,2.89
04/08/2016,1814,1168,417.56,1078,436.67,428.14,13,8,2.09,7,2.2,2.11
05/08/2016,1824,1175,420,1083,440.01,431.42,10,7,2.44,5,3.34,3.28
06/08/2016,1838,1184,421.73,1091,442.12,433.43,14,9,1.73,8,2.11,2.01
07/08/2016,1854,1192,423.62,1100,444.16,435.34,16,8,1.89,9,2.04,1.91
08/08/2016,1871,1198,424.39,1111,447.43,438.56,17,6,0.77,11,3.27,3.22
09/08/2016,1882,1205,426.48,1118,450.82,441.86,11,7,2.09,7,3.39,3.3
10/08/2016,1893,1212,428.66,1124,452.87,443.85,11,7,2.18,6,2.05,1.99
11/08/2016,1905,1220,431.53,1129,456.19,446.99,12,8,2.87,5,3.32,3.14
12/08/2016,1917,1227,433.28,1136,459.52,450.26,12,7,1.75,7,3.33,3.27
13/08/2016,1934,1235,434.8,1146,462.35,453.03,17,8,1.52,10,2.83,2.77
14/08/2016,1947,1242,436.34,1154,465.13,455.77,13,7,1.54,8,2.78,2.74
15/08/2016,1962,1252,439.24,1162,468.09,458.61,15,10,2.9,8,2.96,2.84
16/08/2016,1979,1259,440.9,1172,469.96,460.37,17,7,1.66,10,1.87,1.76
17/08/2016,1995,1266,442.11,1181,472.02,462.39,16,7,1.21,9,2.06,2.02
18/08/2016,2010,1274,443.96,1191,473.4,463.75,15,8,1.85,10,1.38,1.36
19/08/2016,2019,1281,446.49,1194,476.09,466.42,9,7,2.53,3,2.69,2.67
20/08/2016,2024,1288,449.32,1195,479.18,469.44,5,7,2.83,1,3.09,3.02
21/08/2016,2033,1294,451.18,1199,482.8,473.03,9,6,1.86,4,3.62,3.59
22/08/2016,2042,1300,453.81,1203,485.9,476.07,9,6,2.63,4,3.1,3.04
23/08/2016,2053,1309,456.57,1209,488.51,478.53,11,9,2.76,6,2.61,2.46
24/08/2016,2068,1316,458.19,1217,490.28,480.27,15,7,1.62,8,1.77,1.74
25/08/2016,2079,1322,460.18,1223,491.87,481.81,11,6,1.99,6,1.59,1.54
26/08/2016,2088,1328,461.21,1227,495.38,485.29,9,6,1.03,4,3.51,3.48
27/08/2016,2104,1335,463.39,1237,497.05,486.94,16,7,2.18,10,1.67,1.65
28/08/2016,2111,1343,466.88,1240,499.57,489.42,7,8,3.49,3,2.52,2.48
29/08/2016,2117,1349,468.78,1242,503.11,492.94,6,6,1.9,2,3.54,3.52
30/08/2016,2131,1357,470.9,1249,506.61,496.35,14,8,2.12,7,3.5,3.41
31/08/2016,2145,1364,473.09,1257,507.81,497.53,14,7,2.19,8,1.2,1.18
01/09/2016,2154,1371,475.98,1261,511.32,500.95,9,7,2.89,4,3.51,3.42
02/09/2016,2166,1379,477.91,1267,513.94,503.49,12,8,1.93,6,2.62,2.54
03/09/2016,2169,1384,480.91,1268,514.89,504.43,3,5,3,1,0.95,0.94
04/09/2016,2174,1390,484.37,1270,517.17,506.66,5,6,3.46,2,2.28,2.23
05/09/2016,2180,1396,486.49,1271,520.44,509.9,6,6,2.12,1,3.27,3.24
06/09/2016,2185,1401,489.14,1272,522.57,511.99,5,5,2.65,1,2.13,2.09
07/09/2016,2189,1407,492.27,1273,524.48,513.89,4,6,3.13,1,1.91,1.9
08/09/2016,2200,1414,495.07,1279,525.63,515.02,11,7,2.8,6,1.15,1.13
09/09/2016,2211,1421,497.26,1285,527.87,517.15,11,7,2.19,6,2.24,2.13
10/09/2016,2218,1426,499.77,1289,531.25,520.5,7,5,2.51,4,3.38,3.35
11/09/2016,2221,1431,503.44,1289,531.68,520.93,3,5,3.67,0,0.43,0.43
12/09/2016,2234,1439,506.16,1296,533.19,522.34,13,8,2.72,7,1.51,1.41
13/09/2016,2241,1447,509.37,1298,536.13,525.22,7,8,3.21,2,2.94,2.88
14/09/2016,2251,1454,511.98,1303,538.63,527.58,10,7,2.61,5,2.5,2.36
15/09/2016,2262,1462,514.57,1308,540.57,529.35,11,8,2.59,5,1.94,1.77
16/09/2016,2271,1467,515.24,1313,542.22,531,9,5,0.67,5,1.65,1.65
17/09/2016,2275,1469,515.31,1314,544.6,533.36,4,2,0.07,1,2.38,2.36
18/09/2016,2278,1471,515.36,1314,547.09,535.84,3,2,0.05,0,2.49,2.48
19/09/2016,2283,1475,515.44,1316,550.43,539.17,5,4,0.08,2,3.34,3.33
20/09/2016,2288,1477,515.48,1318,553.31,542.04,5,2,0.04,2,2.88,2.87
21/09/2016,2291,1479,515.52,1318,555.2,543.93,3,2,0.04,0,1.89,1.89
22/09/2016,2299,1483,515.56,1321,558.36,547.07,8,4,0.04,3,3.16,3.14
23/09/2016,2306,1489,517.12,1324,561.54,550.22,7,6,1.56,3,3.18,3.15
24/09/2016,2315,1497,521.17,1328,564.3,552.92,9,8,4.05,4,2.76,2.7
25/09/2016,2320,1505,524.87,1330,566.39,554.86,5,8,3.7,2,2.09,1.94
26/09/2016,2330,1513,529.03,1335,570.43,558.66,10,8,4.16,5,4.04,3.8
27/09/2016,2336,1520,531.37,1336,573.73,561.94,6,7,2.34,1,3.3,3.28
28/09/2016,2340,1525,534.58,1337,576.4,564.6,4,5,3.21,1,2.67,2.66
29/09/2016,2345,1530,536.62,1338,578.85,567.04,5,5,2.04,1,2.45,2.44
30/09/2016,2352,1538,540.7,1341,581.9,570.05,7,8,4.08,3,3.05,3.01
01/10/2016,2360,1546,545.12,1344,584.55,572.64,8,8,4.42,3,2.65,2.59
02/10/2016,2366,1552,548.27,1348,586.34,574.31,6,6,3.15,4,1.79,1.67
03/10/2016,2375,1557,550.33,1352,587.9,575.84,9,5,2.06,4,1.56,1.53
04/10/2016,2384,1564,553.25,1357,589.04,576.95,9,7,2.92,5,1.14,1.11
05/10/2016,2392,1573,557.76,1360,590.53,578.4,8,9,4.51,3,1.49,1.45
06/10/2016,2400,1580,561.51,1365,592.44,580.11,8,7,3.75,5,1.91,1.71
07/10/2016,2406,1586,564.24,1367,594.88,582.5,6,6,2.73,2,2.44,2.39
08/10/2016,2409,1591,566.61,1367,596.93,584.55,3,5,2.37,0,2.05,2.05
09/10/2016,2413,1594,567.94,1369,599.34,586.97,4,3,1.33,2,2.41,2.42
10/10/2016,2416,1596,567.99,1370,601.45,589.09,3,2,0.05,1,2.11,2.12
11/10/2016,2421,1600,568.13,1372,604.68,592.29,5,4,0.14,2,3.23,3.2
12/10/2016,2428,1603,568.27,1375,607.01,594.57,7,3,0.14,3,2.33,2.28
13/10/2016,2432,1606,568.45,1377,609.21,596.75,4,3,0.18,2,2.2,2.18
14/10/2016,2437,1609,568.55,1378,612.28,599.79,5,3,0.1,1,3.07,3.04
15/10/2016,2441,1612,568.65,1379,614.76,602.27,4,3,0.1,1,2.48,2.48
16/10/2016,2446,1615,568.72,1381,617.56,605.05,5,3,0.07,2,2.8,2.78
17/10/2016,2452,1618,568.96,1383,620.4,607.85,6,3,0.24,2,2.84,2.8
18/10/2016,2456,1621,569.03,1385,622.98,610.41,4,3,0.07,2,2.58,2.56
19/10/2016,2463,1625,569.21,1388,625.1,612.51,7,4,0.18,3,2.12,2.1
20/10/2016,2467,1627,569.36,1388,627.6,615.01,4,2,0.15,0,2.5,2.5
21/10/2016,2469,1630,569.47,1389,630.13,617.53,2,3,0.11,1,2.53,2.52
22/10/2016,2473,1633,569.61,1389,633.1,620.47,4,3,0.14,0,2.97,2.94
23/10/2016,2476,1635,569.73,1390,635.42,622.79,3,2,0.12,1,2.32,2.32
24/10/2016,2480,1638,569.83,1391,638.44,625.79,4,3,0.1,1,3.02,3
25/10/2016,2483,1640,569.89,1391,640.29,627.62,3,2,0.06,0,1.85,1.83
26/10/2016,2486,1643,570.05,1391,642.88,630.21,3,3,0.16,0,2.59,2.59
27/10/2016,2491,1646,570.19,1393,645.54,632.85,5,3,0.14,2,2.66,2.64
28/10/2016,2495,1648,570.27,1394,647.85,635.16,4,2,0.08,1,2.31,2.31
29/10/2016,2496,1650,570.42,1394,649.43,636.74,1,2,0.15,0,1.58,1.58
30/10/2016,2497,1650,570.46,1394,650.21,637.52,1,0,0.04,0,0.78,0.78
31/10/2016,2497,1651,570.55,1394,651.23,638.53,0,1,0.09,0,1.02,1.01
01/11/2016,2502,1654,570.65,1395,653.95,641.25,5,3,0.1,1,2.72,2.72
02/11/2016,2502,1655,570.74,1396,654.86,642.15,0,1,0.09,1,0.91,0.9
03/11/2016,2506,1658,570.91,1397,657.76,645.04,4,3,0.17,1,2.9,2.89
04/11/2016,2510,1663,572.86,1397,660.55,647.83,4,5,1.95,0,2.79,2.79
05/11/2016,2511,1668,576.54,1397,660.77,648.04,1,5,3.68,0,0.22,0.21
06/11/2016,2513,1672,579.14,1397,661.76,649.03,2,4,2.6,0,0.99,0.99
07/11/2016,2515,1681,585.72,1398,663.36,650.59,2,9,6.58,1,1.6,1.56
08/11/2016,2518,1686,589.02,1398,664.78,651.98,3,5,3.3,0,1.42,1.39
09/11/2016,2520,1691,592.3,1398,665.88,653.07,2,5,3.28,0,1.1,1.09
10/11/2016,2523,1697,597.1,1399,667.19,654.34,3,6,4.8,1,1.31,1.27
11/11/2016,2525,1704,602.05,1399,668.64,655.78,2,7,4.95,0,1.45,1.44
12/11/2016,2529,1711,606.35,1400,669.76,656.88,4,7,4.3,1,1.12,1.1
13/11/2016,2529,1715,610.5,1400,671.14,658.25,0,4,4.15,0,1.38,1.37
14/11/2016,2532,1719,613.44,1402,672.82,659.9,3,4,2.94,2,1.68,1.65